| time (UTC) | temp C | wind direction | speed KPH | gust KPH | rain 1hr cm | rain 24hr cm | rain mn cm | humidity % | barometer mb |
| 20260510010337 | 24 | 153 | 1.6 | 6.4 | 0.00 | 0.00 | 0.00 | 56 | 1025.9 |
| 20260510005837 | 24 | 152 | 1.6 | 4.8 | 0.00 | 0.00 | 0.00 | 56 | 1025.9 |
| 20260510005337 | 24 | 152 | 1.6 | 4.8 | 0.00 | 0.00 | 0.00 | 56 | 1026.0 |
| 20260510004837 | 24 | 152 | 1.6 | 4.8 | 0.00 | 0.00 | 0.00 | 57 | 1026.1 |
| 20260510004337 | 23 | 147 | 1.6 | 8.0 | 0.00 | 0.00 | 0.00 | 57 | 1026.2 |
| 20260510003837 | 23 | 150 | 1.6 | 6.4 | 0.00 | 0.00 | 0.00 | 58 | 1026.2 |
| 20260510003337 | 23 | 150 | 3.2 | 6.4 | 0.00 | 0.00 | 0.00 | 59 | 1026.3 |
| 20260510002837 | 23 | 150 | 1.6 | 4.8 | 0.00 | 0.00 | 0.00 | 59 | 1026.3 |
| 20260510002337 | 22 | 150 | 1.6 | 6.4 | 0.00 | 0.00 | 0.00 | 60 | 1026.4 |
| 20260510001837 | 22 | 149 | 1.6 | 4.8 | 0.00 | 0.00 | 0.00 | 60 | 1026.5 |
| 20260510001337 | 22 | 149 | 1.6 | 4.8 | 0.00 | 0.00 | 0.00 | 60 | 1026.6 |
| 20260510000837 | 22 | 149 | 1.6 | 6.4 | 0.00 | 0.00 | 0.00 | 60 | 1026.6 |
| 20260510000337 | 21 | 149 | 3.2 | 6.4 | 0.00 | 0.00 | 0.00 | 62 | 1026.8 |
| 20260509235837 | 21 | 149 | 3.2 | 6.4 | 0.00 | 0.00 | 0.00 | 62 | 1026.9 |
| 20260509235337 | 21 | 146 | 3.2 | 8.0 | 0.00 | 0.00 | 0.00 | 62 | 1026.9 |
| 20260509234837 | 21 | 144 | 3.2 | 6.4 | 0.00 | 0.00 | 0.00 | 62 | 1026.8 |
| 20260509234337 | 21 | 142 | 3.2 | 6.4 | 0.00 | 0.00 | 0.00 | 63 | 1026.8 |
| 20260509233837 | 20 | 142 | 3.2 | 8.0 | 0.00 | 0.00 | 0.00 | 64 | 1026.8 |
| 20260509233337 | 20 | 140 | 3.2 | 8.0 | 0.00 | 0.00 | 0.00 | 64 | 1026.8 |
| 20260509232837 | 20 | 139 | 3.2 | 8.0 | 0.00 | 0.00 | 0.00 | 65 | 1026.9 |
| 20260509232337 | 20 | 139 | 3.2 | 6.4 | 0.00 | 0.00 | 0.00 | 66 | 1026.8 |
| 20260509231837 | 19 | 138 | 3.2 | 8.0 | 0.00 | 0.00 | 0.00 | 66 | 1026.9 |
| 20260509231337 | 18 | 134 | 3.2 | 8.0 | 0.00 | 0.00 | 0.00 | 67 | 1026.8 |
| 20260509230837 | 18 | 134 | 3.2 | 8.0 | 0.00 | 0.00 | 0.00 | 67 | 1026.7 |
| 20260509230337 | 18 | 126 | 1.6 | 6.4 | 0.00 | 0.00 | 0.00 | 69 | 1026.6 |
| 20260509225837 | 17 | 126 | 3.2 | 4.8 | 0.00 | 0.00 | 0.00 | 70 | 1026.4 |
| 20260509225337 | 17 | 126 | 3.2 | 4.8 | 0.00 | 0.00 | 0.00 | 71 | 1026.2 |
| 20260509224837 | 17 | 126 | 3.2 | 8.0 | 0.00 | 0.00 | 0.00 | 71 | 1026.2 |
| 20260509224337 | 16 | 126 | 3.2 | 8.0 | 0.00 | 0.00 | 0.00 | 74 | 1026.1 |
| 20260509223837 | 16 | 125 | 3.2 | 8.0 | 0.00 | 0.00 | 0.00 | 74 | 1026.3 |
| 20260509223337 | 15 | 120 | 3.2 | 8.0 | 0.00 | 0.00 | 0.00 | 75 | 1026.5 |
| 20260509222837 | 15 | 121 | 3.2 | 6.4 | 0.00 | 0.00 | 0.00 | 77 | 1026.3 |
| 20260509222337 | 15 | 119 | 3.2 | 6.4 | 0.00 | 0.00 | 0.00 | 78 | 1026.2 |
| 20260509221837 | 14 | 118 | 1.6 | 6.4 | 0.00 | 0.00 | 0.00 | 79 | 1026.1 |
| 20260509221337 | 14 | 117 | 1.6 | 6.4 | 0.00 | 0.00 | 0.00 | 81 | 1025.9 |
| 20260509220837 | 13 | 115 | 1.6 | 4.8 | 0.00 | 0.00 | 0.00 | 83 | 1026.0 |
| 20260509220337 | 13 | 115 | 1.6 | 4.8 | 0.00 | 0.00 | 0.00 | 84 | 1026.0 |
| 20260509215837 | 13 | 115 | 1.6 | 4.8 | 0.00 | 0.00 | 0.00 | 85 | 1025.9 |
| 20260509215338 | 12 | 110 | 1.6 | 6.4 | 0.00 | 0.00 | 0.00 | 86 | 1025.9 |
| 20260509214838 | 12 | 115 | 1.6 | 6.4 | 0.00 | 0.00 | 0.00 | 87 | 1025.9 |
| 20260509214338 | 12 | 114 | 1.6 | 6.4 | 0.00 | 0.00 | 0.00 | 89 | 1025.9 |
| 20260509213837 | 11 | 114 | 3.2 | 6.4 | 0.00 | 0.00 | 0.00 | 90 | 1025.8 |
| 20260509213338 | 11 | 113 | 1.6 | 4.8 | 0.00 | 0.00 | 0.00 | 91 | 1025.8 |
| 20260509212838 | 11 | 113 | 1.6 | 4.8 | 0.00 | 0.00 | 0.00 | 91 | 1025.9 |
| 20260509212338 | 11 | 113 | 0.0 | 4.8 | 0.00 | 0.00 | 0.00 | 91 | 1025.8 |
| 20260509211838 | 10 | 108 | 0.0 | 0.0 | 0.00 | 0.00 | 0.00 | 91 | 1025.7 |
| 20260509211338 | 10 | 113 | 0.0 | 0.0 | 0.00 | 0.00 | 0.00 | 91 | 1025.6 |
| 20260509210838 | 10 | 113 | 0.0 | 0.0 | 0.00 | 0.00 | 0.00 | 90 | 1025.6 |
| 20260509210338 | 10 | 113 | 0.0 | 0.0 | 0.00 | 0.00 | 0.00 | 90 | 1025.4 |
| 20260509205838 | 10 | 113 | 0.0 | 0.0 | 0.00 | 0.00 | 0.00 | 90 | 1025.3 |
| 20260509205338 | 10 | 113 | 0.0 | 0.0 | 0.00 | 0.00 | 0.00 | 89 | 1025.2 |
| 20260509204838 | 10 | 113 | 0.0 | 0.0 | 0.00 | 0.00 | 0.00 | 89 | 1025.1 |
| 20260509204338 | 10 | 113 | 0.0 | 0.0 | 0.00 | 0.00 | 0.00 | 89 | 1025.1 |
| 20260509203838 | 10 | 113 | 0.0 | 0.0 | 0.00 | 0.00 | 0.00 | 89 | 1025.0 |
| 20260509203338 | 10 | 113 | 0.0 | 0.0 | 0.00 | 0.00 | 0.00 | 89 | 1025.0 |
| 20260509202838 | 10 | 113 | 0.0 | 0.0 | 0.00 | 0.00 | 0.00 | 89 | 1024.9 |
| 20260509202338 | 10 | 113 | 0.0 | 0.0 | 0.00 | 0.00 | 0.00 | 89 | 1024.9 |
| 20260509201838 | 10 | 113 | 0.0 | 0.0 | 0.00 | 0.00 | 0.00 | 88 | 1024.8 |
| 20260509201338 | 10 | 113 | 0.0 | 0.0 | 0.00 | 0.00 | 0.00 | 88 | 1024.7 |
| 20260509200838 | 10 | 113 | 0.0 | 0.0 | 0.00 | 0.00 | 0.00 | 88 | 1024.7 |
| 20260509200338 | 10 | 113 | 0.0 | 0.0 | 0.00 | 0.00 | 0.00 | 88 | 1024.6 |
| 20260509195838 | 10 | 113 | 0.0 | 0.0 | 0.00 | 0.00 | 0.00 | 88 | 1024.6 |
| 20260509195338 | 10 | 113 | 0.0 | 0.0 | 0.00 | 0.00 | 0.00 | 88 | 1024.6 |
| 20260509194838 | 10 | 113 | 0.0 | 0.0 | 0.00 | 0.00 | 0.00 | 88 | 1024.7 |
| 20260509194338 | 10 | 113 | 0.0 | 0.0 | 0.00 | 0.00 | 0.00 | 88 | 1024.7 |
| 20260509193838 | 10 | 113 | 0.0 | 0.0 | 0.00 | 0.00 | 0.00 | 88 | 1024.7 |
| 20260509193338 | 10 | 113 | 0.0 | 0.0 | 0.00 | 0.00 | 0.00 | 88 | 1024.6 |
| 20260509192838 | 10 | 113 | 0.0 | 0.0 | 0.00 | 0.00 | 0.00 | 88 | 1024.6 |
| 20260509192338 | 10 | 113 | 0.0 | 0.0 | 0.00 | 0.00 | 0.00 | 88 | 1024.5 |
| 20260509191838 | 10 | 113 | 0.0 | 0.0 | 0.00 | 0.00 | 0.00 | 88 | 1024.4 |
| 20260509191338 | 10 | 113 | 0.0 | 0.0 | 0.00 | 0.00 | 0.00 | 88 | 1024.4 |
| 20260509190838 | 10 | 113 | 0.0 | 0.0 | 0.00 | 0.00 | 0.00 | 88 | 1024.2 |
| 20260509190338 | 10 | 113 | 0.0 | 0.0 | 0.00 | 0.00 | 0.00 | 88 | 1024.3 |
| 20260509185838 | 10 | 113 | 0.0 | 0.0 | 0.00 | 0.00 | 0.00 | 89 | 1024.2 |
| 20260509185338 | 10 | 113 | 0.0 | 0.0 | 0.00 | 0.00 | 0.00 | 89 | 1024.2 |
| 20260509184838 | 11 | 113 | 0.0 | 0.0 | 0.00 | 0.00 | 0.00 | 89 | 1024.2 |
| 20260509184338 | 10 | 113 | 0.0 | 0.0 | 0.00 | 0.00 | 0.00 | 88 | 1024.3 |
| 20260509183838 | 10 | 113 | 0.0 | 0.0 | 0.00 | 0.00 | 0.00 | 89 | 1024.2 |
| 20260509183338 | 10 | 113 | 0.0 | 0.0 | 0.00 | 0.00 | 0.00 | 88 | 1024.1 |
| 20260509182838 | 10 | 113 | 0.0 | 0.0 | 0.00 | 0.00 | 0.00 | 88 | 1024.0 |
| 20260509182338 | 10 | 113 | 0.0 | 0.0 | 0.00 | 0.00 | 0.00 | 87 | 1024.0 |
| 20260509181838 | 11 | 113 | 0.0 | 0.0 | 0.00 | 0.00 | 0.00 | 87 | 1024.1 |
| 20260509181338 | 11 | 113 | 0.0 | 0.0 | 0.00 | 0.00 | 0.00 | 87 | 1024.1 |
| 20260509180838 | 11 | 113 | 0.0 | 0.0 | 0.00 | 0.00 | 0.00 | 87 | 1023.9 |
| 20260509180338 | 11 | 113 | 0.0 | 0.0 | 0.00 | 0.00 | 0.00 | 86 | 1023.9 |
| 20260509175838 | 11 | 113 | 0.0 | 0.0 | 0.00 | 0.00 | 0.00 | 86 | 1023.8 |
| 20260509175338 | 11 | 113 | 0.0 | 0.0 | 0.00 | 0.00 | 0.00 | 85 | 1023.8 |
| 20260509174838 | 11 | 113 | 0.0 | 0.0 | 0.00 | 0.00 | 0.00 | 86 | 1023.8 |
| 20260509174338 | 11 | 113 | 0.0 | 0.0 | 0.00 | 0.00 | 0.00 | 85 | 1023.8 |
| 20260509173838 | 11 | 113 | 0.0 | 0.0 | 0.00 | 0.00 | 0.00 | 85 | 1023.8 |
| 20260509173424 | 11 | 113 | 0.0 | 0.0 | 0.00 | 0.00 | 0.00 | 85 | 1023.8 |
| 20260509173338 | 11 | 113 | 0.0 | 0.0 | 0.00 | 0.00 | 0.00 | 85 | 1023.8 |
| 20260509172838 | 11 | 113 | 0.0 | 0.0 | 0.00 | 0.00 | 0.00 | 85 | 1023.8 |
| 20260509172338 | 11 | 113 | 0.0 | 0.0 | 0.00 | 0.00 | 0.00 | 84 | 1023.6 |
| 20260509171838 | 11 | 113 | 0.0 | 0.0 | 0.00 | 0.00 | 0.00 | 84 | 1023.6 |
| 20260509171338 | 11 | 113 | 0.0 | 0.0 | 0.00 | 0.00 | 0.00 | 85 | 1023.6 |
| 20260509170838 | 11 | 113 | 0.0 | 0.0 | 0.00 | 0.00 | 0.00 | 85 | 1023.6 |
| 20260509170338 | 12 | 113 | 0.0 | 0.0 | 0.00 | 0.00 | 0.00 | 84 | 1023.7 |
| 20260509165838 | 12 | 113 | 0.0 | 0.0 | 0.00 | 0.00 | 0.00 | 85 | 1023.8 |
| 20260509165338 | 12 | 113 | 0.0 | 0.0 | 0.00 | 0.00 | 0.00 | 84 | 1023.7 |
| 20260509164838 | 12 | 113 | 0.0 | 0.0 | 0.00 | 0.00 | 0.00 | 84 | 1023.7 |
| 20260509164338 | 12 | 113 | 0.0 | 0.0 | 0.00 | 0.00 | 0.00 | 84 | 1023.7 |
| 20260509163838 | 12 | 113 | 0.0 | 0.0 | 0.00 | 0.00 | 0.00 | 83 | 1023.7 |
| 20260509163338 | 12 | 113 | 0.0 | 0.0 | 0.00 | 0.00 | 0.00 | 82 | 1023.7 |
| 20260509162838 | 12 | 113 | 0.0 | 0.0 | 0.00 | 0.00 | 0.00 | 82 | 1023.6 |
| 20260509162338 | 12 | 113 | 0.0 | 0.0 | 0.00 | 0.00 | 0.00 | 82 | 1023.7 |
| 20260509161838 | 12 | 113 | 0.0 | 0.0 | 0.00 | 0.00 | 0.00 | 82 | 1023.7 |
| 20260509161338 | 12 | 113 | 0.0 | 0.0 | 0.00 | 0.00 | 0.00 | 82 | 1023.7 |
| 20260509160838 | 12 | 113 | 0.0 | 0.0 | 0.00 | 0.00 | 0.00 | 81 | 1023.8 |
| 20260509160338 | 12 | 113 | 0.0 | 0.0 | 0.00 | 0.00 | 0.00 | 80 | 1023.8 |
| 20260509155838 | 12 | 113 | 0.0 | 0.0 | 0.00 | 0.00 | 0.00 | 80 | 1023.7 |
| 20260509155338 | 12 | 113 | 0.0 | 0.0 | 0.00 | 0.00 | 0.00 | 80 | 1023.7 |
| 20260509154838 | 12 | 113 | 0.0 | 0.0 | 0.00 | 0.00 | 0.00 | 81 | 1023.7 |
| 20260509154338 | 12 | 113 | 0.0 | 3.2 | 0.00 | 0.00 | 0.00 | 81 | 1023.7 |
| 20260509153838 | 12 | 113 | 0.0 | 4.8 | 0.00 | 0.00 | 0.00 | 81 | 1023.7 |
| 20260509153338 | 12 | 113 | 0.0 | 0.0 | 0.00 | 0.00 | 0.00 | 80 | 1023.8 |
| 20260509152838 | 12 | 113 | 0.0 | 0.0 | 0.00 | 0.00 | 0.00 | 80 | 1023.9 |
| 20260509152338 | 12 | 113 | 0.0 | 0.0 | 0.00 | 0.00 | 0.00 | 79 | 1023.8 |
| 20260509151838 | 12 | 113 | 0.0 | 0.0 | 0.00 | 0.00 | 0.00 | 79 | 1024.0 |
| 20260509151338 | 12 | 113 | 0.0 | 0.0 | 0.00 | 0.00 | 0.00 | 79 | 1024.0 |
| 20260509150838 | 12 | 113 | 0.0 | 0.0 | 0.00 | 0.00 | 0.00 | 79 | 1024.1 |
| 20260509150338 | 12 | 113 | 0.0 | 0.0 | 0.00 | 0.00 | 0.00 | 79 | 1024.1 |
| 20260509145838 | 12 | 113 | 0.0 | 0.0 | 0.00 | 0.00 | 0.00 | 79 | 1024.0 |
| 20260509145338 | 13 | 113 | 0.0 | 0.0 | 0.00 | 0.00 | 0.00 | 79 | 1023.9 |
| 20260509144838 | 13 | 113 | 0.0 | 0.0 | 0.00 | 0.00 | 0.00 | 79 | 1023.9 |
| 20260509144338 | 13 | 113 | 0.0 | 0.0 | 0.00 | 0.00 | 0.00 | 79 | 1023.8 |
| 20260509143838 | 13 | 113 | 0.0 | 0.0 | 0.00 | 0.00 | 0.00 | 79 | 1023.8 |
| 20260509143338 | 13 | 113 | 0.0 | 0.0 | 0.00 | 0.00 | 0.00 | 79 | 1023.8 |
| 20260509142838 | 13 | 113 | 0.0 | 3.2 | 0.00 | 0.00 | 0.00 | 79 | 1023.8 |
| 20260509142338 | 13 | 113 | 0.0 | 0.0 | 0.00 | 0.00 | 0.00 | 78 | 1023.8 |
| 20260509141838 | 13 | 113 | 0.0 | 0.0 | 0.00 | 0.00 | 0.00 | 78 | 1023.8 |
| 20260509141338 | 13 | 113 | 0.0 | 4.8 | 0.00 | 0.00 | 0.00 | 78 | 1023.8 |
| 20260509140838 | 13 | 113 | 0.0 | 0.0 | 0.00 | 0.00 | 0.00 | 78 | 1023.9 |
| 20260509140338 | 13 | 113 | 0.0 | 0.0 | 0.00 | 0.00 | 0.00 | 78 | 1023.9 |
| 20260509135838 | 13 | 113 | 0.0 | 0.0 | 0.00 | 0.00 | 0.00 | 78 | 1024.0 |
| 20260509135338 | 13 | 113 | 0.0 | 0.0 | 0.00 | 0.00 | 0.00 | 78 | 1024.0 |
| 20260509134838 | 13 | 113 | 0.0 | 0.0 | 0.00 | 0.00 | 0.00 | 77 | 1024.1 |
| 20260509134338 | 13 | 113 | 0.0 | 0.0 | 0.00 | 0.00 | 0.00 | 77 | 1024.1 |
| 20260509133838 | 13 | 113 | 0.0 | 0.0 | 0.00 | 0.00 | 0.00 | 77 | 1024.1 |
| 20260509133338 | 13 | 113 | 0.0 | 0.0 | 0.00 | 0.00 | 0.00 | 77 | 1024.1 |
| 20260509132838 | 13 | 113 | 0.0 | 0.0 | 0.00 | 0.00 | 0.00 | 77 | 1024.2 |
| 20260509132338 | 13 | 113 | 0.0 | 0.0 | 0.00 | 0.00 | 0.00 | 77 | 1024.2 |
| 20260509131838 | 13 | 113 | 0.0 | 0.0 | 0.00 | 0.00 | 0.00 | 77 | 1024.2 |
| 20260509131338 | 13 | 113 | 0.0 | 0.0 | 0.00 | 0.00 | 0.00 | 77 | 1024.2 |
| 20260509130838 | 13 | 113 | 0.0 | 0.0 | 0.00 | 0.00 | 0.00 | 77 | 1024.2 |
| 20260509130338 | 13 | 113 | 0.0 | 0.0 | 0.00 | 0.00 | 0.00 | 77 | 1024.2 |
| 20260509125838 | 13 | 113 | 0.0 | 0.0 | 0.00 | 0.00 | 0.00 | 77 | 1024.1 |
| 20260509125338 | 14 | 113 | 0.0 | 0.0 | 0.00 | 0.00 | 0.00 | 77 | 1024.1 |
| 20260509124838 | 14 | 113 | 0.0 | 0.0 | 0.00 | 0.00 | 0.00 | 77 | 1024.0 |
| 20260509124338 | 14 | 113 | 0.0 | 0.0 | 0.00 | 0.00 | 0.00 | 76 | 1024.1 |
| 20260509123838 | 14 | 113 | 0.0 | 0.0 | 0.00 | 0.00 | 0.00 | 77 | 1024.0 |
| 20260509123338 | 14 | 113 | 0.0 | 0.0 | 0.00 | 0.00 | 0.00 | 77 | 1024.0 |
| 20260509122838 | 14 | 113 | 0.0 | 0.0 | 0.00 | 0.00 | 0.00 | 76 | 1024.1 |
| 20260509122338 | 14 | 113 | 0.0 | 0.0 | 0.00 | 0.00 | 0.00 | 76 | 1024.1 |
| 20260509121838 | 14 | 113 | 0.0 | 0.0 | 0.00 | 0.00 | 0.00 | 75 | 1024.0 |
| 20260509121338 | 14 | 113 | 0.0 | 0.0 | 0.00 | 0.00 | 0.00 | 75 | 1024.0 |
| 20260509120838 | 14 | 113 | 0.0 | 0.0 | 0.00 | 0.00 | 0.00 | 74 | 1024.0 |
| 20260509120338 | 15 | 113 | 0.0 | 0.0 | 0.00 | 0.00 | 0.00 | 74 | 1024.0 |
| 20260509115838 | 15 | 113 | 0.0 | 0.0 | 0.00 | 0.00 | 0.00 | 74 | 1024.1 |
| 20260509115338 | 15 | 113 | 0.0 | 0.0 | 0.00 | 0.00 | 0.00 | 74 | 1024.1 |
| 20260509114838 | 15 | 113 | 0.0 | 0.0 | 0.00 | 0.00 | 0.00 | 74 | 1024.1 |
| 20260509114338 | 15 | 113 | 0.0 | 0.0 | 0.00 | 0.00 | 0.00 | 73 | 1024.1 |
| 20260509113838 | 15 | 113 | 0.0 | 0.0 | 0.00 | 0.00 | 0.00 | 73 | 1024.1 |
| 20260509113338 | 15 | 113 | 0.0 | 0.0 | 0.00 | 0.00 | 0.00 | 73 | 1024.0 |
| 20260509112838 | 15 | 113 | 0.0 | 0.0 | 0.00 | 0.00 | 0.00 | 73 | 1024.0 |
| 20260509112338 | 15 | 113 | 0.0 | 0.0 | 0.00 | 0.00 | 0.00 | 73 | 1024.0 |
| 20260509111838 | 15 | 113 | 0.0 | 0.0 | 0.00 | 0.00 | 0.00 | 72 | 1024.0 |
| 20260509111338 | 15 | 113 | 0.0 | 0.0 | 0.00 | 0.00 | 0.00 | 72 | 1024.0 |
| 20260509110838 | 15 | 113 | 0.0 | 0.0 | 0.00 | 0.00 | 0.00 | 72 | 1024.1 |
| 20260509110339 | 15 | 113 | 0.0 | 0.0 | 0.00 | 0.00 | 0.00 | 72 | 1024.1 |
| 20260509105838 | 15 | 113 | 0.0 | 0.0 | 0.00 | 0.00 | 0.00 | 71 | 1024.0 |
| 20260509105338 | 15 | 113 | 0.0 | 0.0 | 0.00 | 0.00 | 0.00 | 71 | 1024.0 |
| 20260509104838 | 15 | 113 | 0.0 | 0.0 | 0.00 | 0.00 | 0.00 | 70 | 1024.0 |
| 20260509104339 | 16 | 113 | 0.0 | 0.0 | 0.00 | 0.00 | 0.00 | 70 | 1023.9 |
| 20260509103839 | 16 | 113 | 0.0 | 0.0 | 0.00 | 0.00 | 0.00 | 70 | 1023.8 |
| 20260509103339 | 16 | 113 | 0.0 | 0.0 | 0.00 | 0.00 | 0.00 | 70 | 1023.8 |
| 20260509102839 | 16 | 113 | 0.0 | 0.0 | 0.00 | 0.00 | 0.00 | 68 | 1023.8 |
| 20260509102339 | 16 | 113 | 0.0 | 0.0 | 0.00 | 0.00 | 0.00 | 68 | 1023.7 |
| 20260509101839 | 16 | 113 | 0.0 | 0.0 | 0.00 | 0.00 | 0.00 | 68 | 1023.7 |
| 20260509101339 | 16 | 113 | 0.0 | 0.0 | 0.00 | 0.00 | 0.00 | 67 | 1023.7 |
| 20260509100839 | 16 | 113 | 0.0 | 0.0 | 0.00 | 0.00 | 0.00 | 67 | 1023.7 |
| 20260509100339 | 16 | 113 | 0.0 | 0.0 | 0.00 | 0.00 | 0.00 | 67 | 1023.6 |
| 20260509095839 | 16 | 113 | 0.0 | 0.0 | 0.00 | 0.00 | 0.00 | 67 | 1023.6 |
| 20260509095339 | 17 | 113 | 0.0 | 0.0 | 0.00 | 0.00 | 0.00 | 67 | 1023.5 |
| 20260509094839 | 17 | 113 | 0.0 | 0.0 | 0.00 | 0.00 | 0.00 | 66 | 1023.5 |
| 20260509094339 | 17 | 113 | 0.0 | 0.0 | 0.00 | 0.00 | 0.00 | 66 | 1023.4 |
| 20260509093839 | 17 | 113 | 0.0 | 0.0 | 0.00 | 0.00 | 0.00 | 65 | 1023.4 |
| 20260509093339 | 17 | 113 | 0.0 | 0.0 | 0.00 | 0.00 | 0.00 | 64 | 1023.3 |
| 20260509092839 | 17 | 113 | 0.0 | 0.0 | 0.00 | 0.00 | 0.00 | 64 | 1023.1 |
| 20260509092339 | 17 | 113 | 0.0 | 0.0 | 0.00 | 0.00 | 0.00 | 64 | 1023.0 |
| 20260509091839 | 17 | 113 | 0.0 | 0.0 | 0.00 | 0.00 | 0.00 | 63 | 1022.9 |
| 20260509091339 | 17 | 113 | 0.0 | 0.0 | 0.00 | 0.00 | 0.00 | 63 | 1022.9 |
| 20260509090839 | 18 | 113 | 0.0 | 0.0 | 0.00 | 0.00 | 0.00 | 63 | 1022.9 |
| 20260509090339 | 18 | 113 | 0.0 | 0.0 | 0.00 | 0.00 | 0.00 | 61 | 1022.9 |
| 20260509085839 | 18 | 113 | 0.0 | 0.0 | 0.00 | 0.00 | 0.00 | 61 | 1022.8 |
| 20260509085339 | 18 | 113 | 0.0 | 0.0 | 0.00 | 0.00 | 0.00 | 61 | 1022.7 |
| 20260509084839 | 18 | 113 | 0.0 | 0.0 | 0.00 | 0.00 | 0.00 | 60 | 1022.6 |
| 20260509084339 | 18 | 113 | 0.0 | 0.0 | 0.00 | 0.00 | 0.00 | 59 | 1022.5 |
| 20260509083839 | 18 | 113 | 0.0 | 0.0 | 0.00 | 0.00 | 0.00 | 59 | 1022.5 |
| 20260509083339 | 19 | 113 | 0.0 | 0.0 | 0.00 | 0.00 | 0.00 | 58 | 1022.4 |
| 20260509082839 | 19 | 113 | 0.0 | 0.0 | 0.00 | 0.00 | 0.00 | 58 | 1022.3 |
| 20260509082339 | 20 | 113 | 0.0 | 0.0 | 0.00 | 0.00 | 0.00 | 57 | 1022.3 |
| 20260509081839 | 20 | 113 | 0.0 | 0.0 | 0.00 | 0.00 | 0.00 | 56 | 1022.2 |
| 20260509081339 | 20 | 113 | 0.0 | 0.0 | 0.00 | 0.00 | 0.00 | 55 | 1022.2 |
| 20260509080839 | 20 | 113 | 0.0 | 0.0 | 0.00 | 0.00 | 0.00 | 55 | 1022.1 |
| 20260509080339 | 20 | 113 | 0.0 | 0.0 | 0.00 | 0.00 | 0.00 | 54 | 1022.0 |
| 20260509075839 | 20 | 113 | 0.0 | 0.0 | 0.00 | 0.00 | 0.00 | 54 | 1022.0 |
| 20260509075339 | 21 | 113 | 0.0 | 0.0 | 0.00 | 0.00 | 0.00 | 53 | 1021.9 |
| 20260509074839 | 21 | 113 | 0.0 | 0.0 | 0.00 | 0.00 | 0.00 | 53 | 1021.9 |
| 20260509074339 | 21 | 113 | 0.0 | 0.0 | 0.00 | 0.00 | 0.00 | 52 | 1021.9 |
| 20260509073839 | 21 | 113 | 0.0 | 0.0 | 0.00 | 0.00 | 0.00 | 51 | 1021.8 |
| 20260509073339 | 21 | 113 | 0.0 | 0.0 | 0.00 | 0.00 | 0.00 | 51 | 1021.8 |
| 20260509072839 | 21 | 113 | 0.0 | 0.0 | 0.00 | 0.00 | 0.00 | 50 | 1021.8 |
| 20260509072339 | 22 | 113 | 0.0 | 0.0 | 0.00 | 0.00 | 0.00 | 50 | 1021.7 |
| 20260509071839 | 22 | 113 | 0.0 | 0.0 | 0.00 | 0.00 | 0.00 | 49 | 1021.6 |
| 20260509071339 | 22 | 113 | 0.0 | 3.2 | 0.00 | 0.00 | 0.00 | 49 | 1021.6 |
| 20260509070839 | 22 | 113 | 0.0 | 1.6 | 0.00 | 0.00 | 0.00 | 48 | 1021.5 |
| 20260509070339 | 23 | 113 | 1.6 | 3.2 | 0.00 | 0.00 | 0.00 | 47 | 1021.4 |
| 20260509065839 | 23 | 113 | 1.6 | 6.4 | 0.00 | 0.00 | 0.00 | 46 | 1021.3 |
| 20260509065339 | 23 | 113 | 1.6 | 6.4 | 0.00 | 0.00 | 0.00 | 46 | 1021.2 |
| 20260509064839 | 23 | 114 | 1.6 | 9.7 | 0.00 | 0.00 | 0.00 | 45 | 1021.1 |
| 20260509064339 | 23 | 121 | 1.6 | 4.8 | 0.00 | 0.00 | 0.00 | 45 | 1021.0 |
| 20260509063839 | 24 | 121 | 0.0 | 4.8 | 0.00 | 0.00 | 0.00 | 45 | 1020.9 |
| 20260509063339 | 24 | 121 | 1.6 | 0.0 | 0.00 | 0.00 | 0.00 | 45 | 1020.9 |
| 20260509062839 | 24 | 121 | 1.6 | 6.4 | 0.00 | 0.00 | 0.00 | 44 | 1020.8 |
| 20260509062339 | 24 | 121 | 1.6 | 4.8 | 0.00 | 0.00 | 0.00 | 44 | 1020.8 |
| 20260509061839 | 24 | 121 | 1.6 | 6.4 | 0.00 | 0.00 | 0.00 | 44 | 1020.7 |
| 20260509061339 | 24 | 121 | 1.6 | 8.0 | 0.00 | 0.00 | 0.00 | 44 | 1020.7 |
| 20260509060839 | 24 | 121 | 1.6 | 4.8 | 0.00 | 0.00 | 0.00 | 44 | 1020.7 |
| 20260509060339 | 24 | 121 | 3.2 | 6.4 | 0.00 | 0.00 | 0.00 | 44 | 1020.7 |
| 20260509055839 | 24 | 122 | 3.2 | 6.4 | 0.00 | 0.00 | 0.00 | 44 | 1020.7 |
| 20260509055339 | 24 | 123 | 4.8 | 14.5 | 0.00 | 0.00 | 0.00 | 44 | 1020.6 |
| 20260509054839 | 25 | 97 | 4.8 | 9.7 | 0.00 | 0.00 | 0.00 | 44 | 1020.6 |
| 20260509054339 | 25 | 94 | 4.8 | 9.7 | 0.00 | 0.00 | 0.00 | 44 | 1020.6 |
| 20260509053839 | 25 | 97 | 4.8 | 9.7 | 0.00 | 0.00 | 0.00 | 43 | 1020.6 |
| 20260509053339 | 25 | 45 | 3.2 | 11.3 | 0.00 | 0.00 | 0.00 | 43 | 1020.5 |
| 20260509052839 | 25 | 50 | 3.2 | 4.8 | 0.00 | 0.00 | 0.00 | 43 | 1020.5 |
| 20260509052339 | 25 | 47 | 3.2 | 11.3 | 0.00 | 0.00 | 0.00 | 43 | 1020.5 |
| 20260509051839 | 25 | 145 | 1.6 | 4.8 | 0.00 | 0.00 | 0.00 | 42 | 1020.5 |
| 20260509051339 | 25 | 146 | 3.2 | 6.4 | 0.00 | 0.00 | 0.00 | 41 | 1020.4 |
| 20260509050839 | 25 | 151 | 4.8 | 9.7 | 0.00 | 0.00 | 0.00 | 41 | 1020.4 |
| 20260509050339 | 25 | 165 | 3.2 | 9.7 | 0.00 | 0.00 | 0.00 | 42 | 1020.5 |
| 20260509045839 | 25 | 65 | 1.6 | 8.0 | 0.00 | 0.00 | 0.00 | 42 | 1020.5 |
| 20260509045339 | 25 | 144 | 3.2 | 4.8 | 0.00 | 0.00 | 0.00 | 42 | 1020.5 |
| 20260509044839 | 25 | 140 | 1.6 | 8.0 | 0.00 | 0.00 | 0.00 | 41 | 1020.5 |
| 20260509044339 | 25 | 146 | 1.6 | 4.8 | 0.00 | 0.00 | 0.00 | 42 | 1020.5 |
| 20260509043839 | 24 | 146 | 3.2 | 9.7 | 0.00 | 0.00 | 0.00 | 43 | 1020.5 |
| 20260509043339 | 24 | 155 | 1.6 | 6.4 | 0.00 | 0.00 | 0.00 | 43 | 1020.5 |
| 20260509042839 | 24 | 155 | 3.2 | 9.7 | 0.00 | 0.00 | 0.00 | 44 | 1020.5 |
| 20260509042339 | 24 | 157 | 3.2 | 11.3 | 0.00 | 0.00 | 0.00 | 45 | 1020.6 |
| 20260509041839 | 24 | 163 | 3.2 | 8.0 | 0.00 | 0.00 | 0.00 | 44 | 1020.5 |
| 20260509041339 | 24 | 163 | 3.2 | 8.0 | 0.00 | 0.00 | 0.00 | 44 | 1020.5 |
| 20260509040839 | 24 | 163 | 4.8 | 8.0 | 0.00 | 0.00 | 0.00 | 44 | 1020.6 |
| 20260509040339 | 24 | 163 | 4.8 | 11.3 | 0.00 | 0.00 | 0.00 | 42 | 1020.6 |
| 20260509035839 | 25 | 165 | 4.8 | 11.3 | 0.00 | 0.00 | 0.00 | 43 | 1020.6 |
| 20260509035339 | 25 | 171 | 3.2 | 9.7 | 0.00 | 0.00 | 0.00 | 43 | 1020.6 |
| 20260509034839 | 25 | 172 | 3.2 | 9.7 | 0.00 | 0.00 | 0.00 | 43 | 1020.6 |
| 20260509034339 | 25 | 171 | 4.8 | 8.0 | 0.00 | 0.00 | 0.00 | 43 | 1020.6 |
| 20260509033839 | 25 | 175 | 6.4 | 9.7 | 0.00 | 0.00 | 0.00 | 43 | 1020.7 |
| 20260509033339 | 25 | 173 | 6.4 | 16.1 | 0.00 | 0.00 | 0.00 | 43 | 1020.7 |
| 20260509032839 | 25 | 160 | 6.4 | 14.5 | 0.00 | 0.00 | 0.00 | 43 | 1020.8 |
| 20260509032339 | 25 | 167 | 4.8 | 9.7 | 0.00 | 0.00 | 0.00 | 43 | 1020.8 |
| 20260509031839 | 25 | 171 | 3.2 | 11.3 | 0.00 | 0.00 | 0.00 | 43 | 1020.9 |
| 20260509031339 | 25 | 172 | 3.2 | 4.8 | 0.00 | 0.00 | 0.00 | 45 | 1020.8 |
| 20260509030839 | 25 | 172 | 3.2 | 11.3 | 0.00 | 0.00 | 0.00 | 45 | 1021.0 |
| 20260509030339 | 25 | 174 | 3.2 | 8.0 | 0.00 | 0.00 | 0.00 | 44 | 1021.0 |
| 20260509025839 | 24 | 175 | 3.2 | 8.0 | 0.00 | 0.00 | 0.00 | 45 | 1021.0 |
| 20260509025339 | 24 | 178 | 3.2 | 9.7 | 0.00 | 0.00 | 0.00 | 45 | 1021.1 |
| 20260509024839 | 24 | 101 | 3.2 | 11.3 | 0.00 | 0.00 | 0.00 | 45 | 1021.2 |
| 20260509024339 | 25 | 96 | 3.2 | 9.7 | 0.00 | 0.00 | 0.00 | 44 | 1021.3 |
| 20260509023839 | 25 | 92 | 3.2 | 6.4 | 0.00 | 0.00 | 0.00 | 44 | 1021.4 |
| 20260509023339 | 25 | 89 | 3.2 | 8.0 | 0.00 | 0.00 | 0.00 | 44 | 1021.4 |
| 20260509022839 | 25 | 85 | 3.2 | 11.3 | 0.00 | 0.00 | 0.00 | 44 | 1021.6 |
| 20260509022339 | 25 | 80 | 3.2 | 11.3 | 0.00 | 0.00 | 0.00 | 44 | 1021.7 |
| 20260509021839 | 24 | 48 | 3.2 | 11.3 | 0.00 | 0.00 | 0.00 | 46 | 1021.7 |
| 20260509021339 | 24 | 200 | 3.2 | 8.0 | 0.00 | 0.00 | 0.00 | 47 | 1021.8 |
| 20260509020839 | 23 | 202 | 3.2 | 9.7 | 0.00 | 0.00 | 0.00 | 47 | 1021.9 |
| 20260509020339 | 23 | 118 | 3.2 | 9.7 | 0.00 | 0.00 | 0.00 | 47 | 1021.9 |
| 20260509015839 | 23 | 112 | 3.2 | 6.4 | 0.00 | 0.00 | 0.00 | 47 | 1022.1 |
| 20260509015339 | 23 | 109 | 4.8 | 9.7 | 0.00 | 0.00 | 0.00 | 47 | 1022.1 |
| 20260509014839 | 23 | 111 | 4.8 | 9.7 | 0.00 | 0.00 | 0.00 | 47 | 1022.2 |
| 20260509014339 | 24 | 112 | 4.8 | 11.3 | 0.00 | 0.00 | 0.00 | 46 | 1022.3 |
| 20260509013839 | 23 | 170 | 3.2 | 11.3 | 0.00 | 0.00 | 0.00 | 46 | 1022.3 |
| 20260509013339 | 23 | 175 | 3.2 | 11.3 | 0.00 | 0.00 | 0.00 | 46 | 1022.4 |
| 20260509012839 | 23 | 164 | 3.2 | 8.0 | 0.00 | 0.00 | 0.00 | 46 | 1022.4 |
| 20260509012339 | 23 | 160 | 4.8 | 8.0 | 0.00 | 0.00 | 0.00 | 45 | 1022.6 |
| 20260509011839 | 23 | 165 | 3.2 | 11.3 | 0.00 | 0.00 | 0.00 | 46 | 1022.6 |
| 20260509011339 | 23 | 186 | 1.6 | 6.4 | 0.00 | 0.00 | 0.00 | 46 | 1022.7 |
| 20260509010839 | 23 | 186 | 1.6 | 6.4 | 0.00 | 0.00 | 0.00 | 45 | 1022.8 |